Tracking 17140 objects as of 1-July-2015
HD Live streaming from Space Station

GOES 7

Track GOES 7 now!
GOES 7 is classified as:


NORAD ID: 17561
Int'l Code: 1987-022A
Perigee: 35,898.2 km
Apogee: 35,904.1 km
Inclination: 14.9 °
Period: 1,441.6 minutes
Semi major axis: 42272 km
RCS: 10.3409 m2 (large)
Launch date: February 26, 1987
Source: United States (US)
Your satellite tracking list
Your tracking list is empty





NASA's NSSDC Master Catalog

Two Line Element Set (TLE):
1 17561U 87022A   15180.59016775  .00000044  00000-0  00000+0 0  9991
2 17561 014.9473 013.5580 0000701 185.0717 355.6053 00.99889792 86966

Source of the keplerian elements: AFSPC

N2YO: 326